TimeCET,TemperatureF,Dew PointF,Humidity,Sea Level PressureIn,VisibilityMPH,Wind Direction,Wind SpeedMPH,Gust SpeedMPH,PrecipitationIn,Events,Conditions,WindDirDegrees,DateUTC
12:00 AM,39.2,39.2,100,29.62,3.7,West,3.5,-,N/A,,Unknown,270,2013-03-07 23:00:00
12:34 AM,39.2,39.2,100,29.62,0.1,Variable,1.2,-,N/A,Fog,Fog,0,2013-03-07 23:34:00
1:00 AM,37.4,37.4,100,29.62,0.1,West,2.3,-,N/A,Fog,Fog,260,2013-03-08 00:00:00
2:00 AM,39.2,39.2,100,29.62,0.4,West,3.5,-,N/A,Fog,Fog,270,2013-03-08 01:00:00
3:00 AM,41.0,39.2,93,29.62,1.2,Calm,Calm,-,N/A,,Overcast,0,2013-03-08 02:00:00
3:16 AM,41.0,39.2,93,29.59,1.2,Calm,Calm,-,N/A,,Overcast,0,2013-03-08 02:16:00
4:00 AM,39.2,39.2,100,29.62,1.2,Calm,Calm,-,N/A,,Overcast,0,2013-03-08 03:00:00
5:00 AM,39.2,39.2,100,29.62,0.9,SW,2.3,-,N/A,,Overcast,230,2013-03-08 04:00:00
6:00 AM,39.2,39.2,100,29.62,0.4,Variable,1.2,-,N/A,Fog,Fog,0,2013-03-08 05:00:00
6:43 AM,39.2,39.2,100,29.62,0.6,Variable,1.2,-,N/A,,Overcast,0,2013-03-08 05:43:00
7:00 AM,41.0,39.2,93,29.62,0.6,East,1.2,-,N/A,,Overcast,100,2013-03-08 06:00:00
7:19 AM,41.0,39.2,93,29.62,0.6,Calm,Calm,-,N/A,,Overcast,0,2013-03-08 06:19:00
7:37 AM,41.0,41.0,100,29.62,0.3,Variable,1.2,-,N/A,Fog,Fog,0,2013-03-08 06:37:00
8:00 AM,41.0,39.2,93,29.62,0.3,West,1.2,-,N/A,Fog,Fog,260,2013-03-08 07:00:00
8:27 AM,42.8,41.0,93,29.62,0.6,Calm,Calm,-,N/A,,Overcast,0,2013-03-08 07:27:00
9:00 AM,42.8,41.0,93,29.62,0.7,Calm,Calm,-,N/A,,Overcast,0,2013-03-08 08:00:00
10:00 AM,44.6,42.8,93,29.62,1.0,Calm,Calm,-,N/A,,Overcast,0,2013-03-08 09:00:00
11:00 AM,44.6,42.8,93,29.62,1.9,Variable,2.3,-,N/A,,Overcast,0,2013-03-08 10:00:00
12:00 PM,46.4,44.6,93,29.62,5.0,NNE,4.6,-,N/A,,Overcast,30,2013-03-08 11:00:00
1:00 PM,48.2,44.6,87,29.62,5.0,NNE,3.5,-,N/A,,Overcast,20,2013-03-08 12:00:00
2:00 PM,48.2,44.6,87,29.62,6.2,North,4.6,-,N/A,,Overcast,10,2013-03-08 13:00:00
3:00 PM,48.2,42.8,82,29.62,6.2,NNE,4.6,-,N/A,,Overcast,30,2013-03-08 14:00:00
4:00 PM,46.4,42.8,87,29.62,6.2,North,3.5,-,N/A,,Overcast,10,2013-03-08 15:00:00
6:00 PM,44.6,42.8,93,29.62,5.0,NNE,3.5,-,N/A,Rain,Light Rain,30,2013-03-08 17:00:00
7:00 PM,42.8,41.0,93,29.62,6.2,Variable,2.3,-,N/A,,Overcast,0,2013-03-08 18:00:00
8:00 PM,42.8,41.0,93,29.62,6.2,Variable,2.3,-,N/A,,Overcast,0,2013-03-08 19:00:00
9:00 PM,41.0,39.2,93,29.62,6.2,North,2.3,-,N/A,,Overcast,350,2013-03-08 20:00:00
10:00 PM,41.0,39.2,93,29.62,6.2,Variable,2.3,-,N/A,,Overcast,0,2013-03-08 21:00:00
11:00 PM,41.0,39.2,93,29.62,6.2,NNW,3.5,-,N/A,,Overcast,330,2013-03-08 22:00:00